,,,PA_Meas_PMT16A,,PR_Meas_QMR101_102,,RH_Meas_QMH101,,SR_Meas_QMS101,,TA_Meas_QMH101,,GenWind,,GenWind,
date,time,status,PA,status,PR,status,RH,status,SR,status,TA,status,DirAvg,status,SpdAvg,
2010-05-27, 00:00:05,VALID,1001.64,VALID,0,VALID,93.4171,VALID,0,VALID,23.4671,VALID,30,VALID,0.969141,
2010-05-27, 00:01:05,VALID,1001.62,VALID,0,VALID,93.4094,VALID,0,VALID,23.4493,VALID,31,VALID,0.680078,
2010-05-27, 00:02:05,VALID,1001.6,VALID,0,VALID,93.3331,VALID,0,VALID,23.3695,VALID,46,VALID,0.755078,
2010-05-27, 00:03:05,VALID,1001.56,VALID,0,VALID,93.3408,VALID,0,VALID,23.3092,VALID,47,VALID,0.758594,
2010-05-27, 00:04:05,VALID,1001.56,VALID,0,VALID,93.356,VALID,0,VALID,23.311,VALID,47,VALID,0.494922,
2010-05-27, 00:05:05,VALID,1001.55,VALID,0,VALID,93.4094,VALID,0,VALID,23.2915,VALID,47,VALID,0,
2010-05-27, 00:06:05,VALID,1001.54,VALID,0,VALID,93.4781,VALID,0,VALID,23.2897,VALID,47,VALID,0.00078125,
2010-05-27, 00:07:05,VALID,1001.52,VALID,0,VALID,93.5163,VALID,0,VALID,23.2915,VALID,45,VALID,0.444922,
2010-05-27, 00:08:05,VALID,1001.51,VALID,0,VALID,93.5163,VALID,0,VALID,23.2312,VALID,69,VALID,0.843359,
2010-05-27, 00:09:05,VALID,1001.5,VALID,0,VALID,93.6002,VALID,0,VALID,23.2719,VALID,79,VALID,0.34375,
2010-05-27, 00:10:05,VALID,1001.49,VALID,0,VALID,93.6154,VALID,0,VALID,23.2312,VALID,5,VALID,0.833594,
2010-05-27, 00:11:05,VALID,1001.48,VALID,0,VALID,93.6154,VALID,0,VALID,23.2117,VALID,15,VALID,1.14727,
2010-05-27, 00:12:05,VALID,1001.39,VALID,0,VALID,93.6154,VALID,0,VALID,23.1726,VALID,39,VALID,1.2668,
2010-05-27, 00:13:05,VALID,1001.39,VALID,0,VALID,93.6307,VALID,0,VALID,23.1939,VALID,37,VALID,0.812891,
2010-05-27, 00:14:05,VALID,1001.36,VALID,0,VALID,93.6383,VALID,0,VALID,23.1531,VALID,37,VALID,0.510156,
2010-05-27, 00:15:05,VALID,1001.39,VALID,0,VALID,93.6383,VALID,0,VALID,23.1549,VALID,36,VALID,0.620703,
2010-05-27, 00:16:05,VALID,1001.34,VALID,0,VALID,93.6765,VALID,0,VALID,23.1354,VALID,46,VALID,1.08281,
2010-05-27, 00:17:05,VALID,1001.36,VALID,0,VALID,93.707,VALID,0,VALID,23.1354,VALID,50,VALID,0.912109,
2010-05-27, 00:18:05,VALID,1001.33,VALID,0,VALID,93.7299,VALID,0,VALID,23.1159,VALID,50,VALID,0.682031,
2010-05-27, 00:19:05,VALID,1001.33,VALID,0,VALID,93.7299,VALID,0,VALID,23.1159,VALID,50,VALID,0.531641,
2010-05-27, 00:20:05,VALID,1001.34,VALID,0,VALID,93.7528,VALID,0,VALID,23.0964,VALID,50,VALID,0.469141,
2010-05-27, 00:21:05,VALID,1001.3,VALID,0,VALID,93.7833,VALID,0,VALID,23.0964,VALID,84,VALID,0.700391,
2010-05-27, 00:22:05,VALID,1001.32,VALID,0,VALID,93.8596,VALID,0,VALID,23.1744,VALID,84,VALID,0.565625,
2010-05-27, 00:23:05,VALID,1001.3,VALID,0,VALID,93.913,VALID,0,VALID,23.2329,VALID,84,VALID,0.346875,
2010-05-27, 00:24:05,VALID,1001.3,VALID,0,VALID,93.8748,VALID,0,VALID,23.1921,VALID,84,VALID,0.135937,
2010-05-27, 00:25:05,VALID,1001.34,VALID,0,VALID,93.9054,VALID,0,VALID,23.1726,VALID,84,VALID,0,
2010-05-27, 00:26:05,VALID,1001.34,VALID,0,VALID,93.8901,VALID,0,VALID,23.1549,VALID,84,VALID,0,
2010-05-27, 00:27:05,VALID,1001.34,VALID,0,VALID,93.8901,VALID,0,VALID,23.1744,VALID,84,VALID,0.0148437,
2010-05-27, 00:28:05,VALID,1001.31,VALID,0,VALID,93.9206,VALID,0,VALID,23.1939,VALID,84,VALID,0.370703,
2010-05-27, 00:29:05,VALID,1001.32,VALID,0,VALID,93.9435,VALID,0,VALID,23.2329,VALID,84,VALID,0.0121094,
2010-05-27, 00:30:05,VALID,1001.32,VALID,0,VALID,93.9359,VALID,0,VALID,23.2524,VALID,84,VALID,0,
2010-05-27, 00:31:05,VALID,1001.31,VALID,0,VALID,93.974,VALID,0,VALID,23.2524,VALID,139,VALID,0,
2010-05-27, 00:32:05,VALID,1001.3,VALID,0,VALID,93.974,VALID,0,VALID,23.311,VALID,165,VALID,0,
2010-05-27, 00:33:05,VALID,1001.31,VALID,0,VALID,93.9817,VALID,0,VALID,23.2897,VALID,165,VALID,0,
2010-05-27, 00:34:05,VALID,1001.31,VALID,0,VALID,93.9893,VALID,0,VALID,23.35,VALID,165,VALID,0,
2010-05-27, 00:35:05,VALID,1001.27,VALID,0,VALID,93.9893,VALID,0,VALID,23.3695,VALID,165,VALID,0,
2010-05-27, 00:36:05,VALID,1001.24,VALID,0,VALID,93.9893,VALID,0,VALID,23.3695,VALID,165,VALID,0,
2010-05-27, 00:37:05,VALID,1001.24,VALID,0,VALID,93.9893,VALID,0,VALID,23.3092,VALID,165,VALID,0,
2010-05-27, 00:38:05,VALID,1001.2,VALID,0,VALID,94.0122,VALID,0,VALID,23.311,VALID,165,VALID,0,
2010-05-27, 00:39:05,VALID,1001.2,VALID,0,VALID,94.0122,VALID,0,VALID,23.3695,VALID,165,VALID,0,
2010-05-27, 00:40:04,VALID,1001.18,VALID,0,VALID,94.0351,VALID,0,VALID,23.428,VALID,165,VALID,0,
2010-05-27, 00:41:04,VALID,1001.18,VALID,0,VALID,94.0045,VALID,0,VALID,23.428,VALID,165,VALID,0,
2010-05-27, 00:42:04,VALID,1001.17,VALID,0,VALID,93.974,VALID,0,VALID,23.3092,VALID,165,VALID,0,
2010-05-27, 00:43:04,VALID,1001.15,VALID,0,VALID,93.974,VALID,0,VALID,23.2507,VALID,126,VALID,0,
2010-05-27, 00:44:04,VALID,1001.12,VALID,0,VALID,93.9817,VALID,0.112286,VALID,23.1921,VALID,125,VALID,0,
2010-05-27, 00:45:04,VALID,1001.09,VALID,0,VALID,94.0198,VALID,0,VALID,23.2312,VALID,125,VALID,0,
2010-05-27, 00:46:04,VALID,1001.05,VALID,0,VALID,94.0198,VALID,0,VALID,23.2524,VALID,125,VALID,0,
2010-05-27, 00:47:04,VALID,1001.04,VALID,0,VALID,94.0045,VALID,0,VALID,23.1726,VALID,101,VALID,0.609375,
2010-05-27, 00:48:04,VALID,1001.02,VALID,0,VALID,94.0351,VALID,0,VALID,23.1921,VALID,93,VALID,0.848437,
2010-05-27, 00:49:04,VALID,1001.01,VALID,0,VALID,94.0351,VALID,0,VALID,23.1549,VALID,93,VALID,0.498828,
2010-05-27, 00:50:04,VALID,1000.97,VALID,0,VALID,94.0122,VALID,0,VALID,23.1744,VALID,93,VALID,0.303516,
2010-05-27, 00:51:04,VALID,1000.98,VALID,0,VALID,94.0122,VALID,0,VALID,23.1549,VALID,93,VALID,0.155078,
2010-05-27, 00:52:04,VALID,1000.99,VALID,0,VALID,93.9893,VALID,0,VALID,23.0964,VALID,93,VALID,0,
2010-05-27, 00:53:04,VALID,1000.99,VALID,0,VALID,94.0122,VALID,0,VALID,23.0964,VALID,93,VALID,0.153516,
2010-05-27, 00:54:04,VALID,1000.98,VALID,0,VALID,94.058,VALID,0,VALID,23.1549,VALID,93,VALID,0.488672,
2010-05-27, 00:55:04,VALID,1000.94,VALID,0,VALID,94.0503,VALID,0,VALID,23.1744,VALID,93,VALID,0.394531,
2010-05-27, 00:56:04,VALID,1000.97,VALID,0,VALID,94.0503,VALID,0,VALID,23.1744,VALID,93,VALID,0.6,
2010-05-27, 00:57:04,VALID,1000.93,VALID,0,VALID,94.0656,VALID,0,VALID,23.2134,VALID,93,VALID,0.541797,
2010-05-27, 00:58:04,VALID,1000.93,VALID,0,VALID,94.1037,VALID,0,VALID,23.2329,VALID,93,VALID,0.226563,
2010-05-27, 00:59:04,VALID,1000.9,VALID,0,VALID,94.0961,VALID,0,VALID,23.2329,VALID,93,VALID,0,
2010-05-27, 01:00:04,VALID,1000.89,VALID,0,VALID,94.0808,VALID,0,VALID,23.1939,VALID,93,VALID,0,
2010-05-27, 01:01:04,VALID,1000.89,VALID,0,VALID,94.1037,VALID,0,VALID,23.1726,VALID,93,VALID,0,
2010-05-27, 01:02:04,VALID,1000.85,VALID,0,VALID,94.0885,VALID,0,VALID,23.1744,VALID,93,VALID,0,
2010-05-27, 01:03:04,VALID,1000.87,VALID,0,VALID,94.0808,VALID,0,VALID,23.1354,VALID,93,VALID,0.0277344,
2010-05-27, 01:04:04,VALID,1000.85,VALID,0,VALID,94.1114,VALID,0,VALID,23.1566,VALID,93,VALID,0.0769531,
2010-05-27, 01:05:04,VALID,1000.85,VALID,0,VALID,94.1037,VALID,0,VALID,23.1549,VALID,93,VALID,0,
2010-05-27, 01:06:04,VALID,1000.82,VALID,0,VALID,94.0961,VALID,0,VALID,23.1549,VALID,93,VALID,0,
2010-05-27, 01:07:04,VALID,1000.81,VALID,0,VALID,94.0961,VALID,0,VALID,23.1549,VALID,93,VALID,0.116406,
2010-05-27, 01:08:04,VALID,1000.79,VALID,0,VALID,94.0885,VALID,0,VALID,23.1354,VALID,93,VALID,0.588672,
2010-05-27, 01:09:04,VALID,1000.79,VALID,0,VALID,94.0732,VALID,0,VALID,23.0964,VALID,39,VALID,0.846094,
2010-05-27, 01:10:04,VALID,1000.79,VALID,0,VALID,94.0656,VALID,0,VALID,23.0573,VALID,35,VALID,0.920313,
2010-05-27, 01:11:04,VALID,1000.79,VALID,0,VALID,94.0808,VALID,0,VALID,23.0183,VALID,35,VALID,0.690625,
2010-05-27, 01:12:04,VALID,1000.74,VALID,0,VALID,94.0656,VALID,0,VALID,22.9403,VALID,35,VALID,0.893359,
2010-05-27, 01:13:04,VALID,1000.75,VALID,0,VALID,94.0656,VALID,0,VALID,22.8623,VALID,25,VALID,0.896484,
2010-05-27, 01:14:04,VALID,1000.74,VALID,0,VALID,94.0808,VALID,0,VALID,22.8427,VALID,10,VALID,0.883984,
2010-05-27, 01:15:04,VALID,1000.77,VALID,0,VALID,94.0808,VALID,0,VALID,22.8818,VALID,1,VALID,0.647656,
2010-05-27, 01:16:04,VALID,1000.78,VALID,0,VALID,94.119,VALID,0,VALID,22.9403,VALID,1,VALID,0.634375,
2010-05-27, 01:17:04,VALID,1000.75,VALID,0,VALID,94.119,VALID,0,VALID,22.9793,VALID,1,VALID,0.378906,
2010-05-27, 01:18:04,VALID,1000.74,VALID,0,VALID,94.1266,VALID,0,VALID,22.9988,VALID,1,VALID,0.35625,
2010-05-27, 01:19:04,VALID,1000.72,VALID,0,VALID,94.1419,VALID,0,VALID,23.0396,VALID,1,VALID,0.415234,
2010-05-27, 01:20:04,VALID,1000.72,VALID,0,VALID,94.1419,VALID,0,VALID,23.0573,VALID,1,VALID,0,
2010-05-27, 01:21:04,VALID,1000.72,VALID,0,VALID,94.1419,VALID,0,VALID,23.1159,VALID,1,VALID,0,
2010-05-27, 01:22:04,VALID,1000.73,VALID,0,VALID,94.1495,VALID,0,VALID,23.1549,VALID,1,VALID,0,
2010-05-27, 01:23:04,VALID,1000.71,VALID,0,VALID,94.1495,VALID,0,VALID,23.1354,VALID,1,VALID,0,
2010-05-27, 01:24:04,VALID,1000.69,VALID,0,VALID,94.1571,VALID,0,VALID,23.1939,VALID,1,VALID,0,
2010-05-27, 01:25:04,VALID,1000.7,VALID,0,VALID,94.1724,VALID,0,VALID,23.1549,VALID,1,VALID,0,
2010-05-27, 01:26:04,VALID,1000.7,VALID,0,VALID,94.1648,VALID,0,VALID,23.1354,VALID,1,VALID,0,
2010-05-27, 01:27:04,VALID,1000.7,VALID,0,VALID,94.1495,VALID,0,VALID,23.1159,VALID,1,VALID,0,
2010-05-27, 01:28:04,VALID,1000.71,VALID,0,VALID,94.1648,VALID,0,VALID,23.0769,VALID,1,VALID,0,
2010-05-27, 01:29:04,VALID,1000.71,VALID,0,VALID,94.1571,VALID,0,VALID,22.9988,VALID,1,VALID,0,
2010-05-27, 01:30:04,VALID,1000.7,VALID,0,VALID,94.1495,VALID,0,VALID,22.9403,VALID,1,VALID,0,
2010-05-27, 01:31:04,VALID,1000.69,VALID,0,VALID,94.1571,VALID,0,VALID,22.9208,VALID,1,VALID,0,
2010-05-27, 01:32:04,VALID,1000.69,VALID,0,VALID,94.1419,VALID,0,VALID,22.841,VALID,1,VALID,0,
2010-05-27, 01:33:04,VALID,1000.66,VALID,0,VALID,94.1724,VALID,0,VALID,22.841,VALID,1,VALID,0,
2010-05-27, 01:34:04,VALID,1000.66,VALID,0,VALID,94.2029,VALID,0,VALID,22.9013,VALID,1,VALID,0,
2010-05-27, 01:35:04,VALID,1000.64,VALID,0,VALID,94.2029,VALID,0,VALID,22.9403,VALID,1,VALID,0,
2010-05-27, 01:36:04,VALID,1000.65,VALID,0,VALID,94.1953,VALID,0,VALID,22.9208,VALID,1,VALID,0,
2010-05-27, 01:37:04,VALID,1000.65,VALID,0,VALID,94.1953,VALID,0,VALID,22.9403,VALID,1,VALID,0,
2010-05-27, 01:38:04,VALID,1000.65,VALID,0,VALID,94.2105,VALID,0,VALID,22.9208,VALID,1,VALID,0,
2010-05-27, 01:39:04,VALID,1000.66,VALID,0,VALID,94.2182,VALID,0,VALID,22.8995,VALID,1,VALID,0,
2010-05-27, 01:40:04,VALID,1000.64,VALID,0,VALID,94.1724,VALID,0,VALID,22.8605,VALID,1,VALID,0,
2010-05-27, 01:41:04,VALID,1000.64,VALID,0,VALID,94.2029,VALID,0,VALID,22.8427,VALID,1,VALID,0,
2010-05-27, 01:42:04,VALID,1000.63,VALID,0,VALID,94.1953,VALID,0,VALID,22.8232,VALID,1,VALID,0,
2010-05-27, 01:43:04,VALID,1000.61,VALID,0,VALID,94.2029,VALID,0,VALID,22.8037,VALID,1,VALID,0,
2010-05-27, 01:44:04,VALID,1000.61,VALID,0,VALID,94.2105,VALID,0,VALID,22.7825,VALID,1,VALID,0,
2010-05-27, 01:45:04,VALID,1000.61,VALID,0,VALID,94.2258,VALID,0,VALID,22.8037,VALID,1,VALID,0,
2010-05-27, 01:46:04,VALID,1000.59,VALID,0,VALID,94.2334,VALID,0,VALID,22.8037,VALID,1,VALID,0,
2010-05-27, 01:47:04,VALID,1000.6,VALID,0,VALID,94.2334,VALID,0,VALID,22.8037,VALID,1,VALID,0,
2010-05-27, 01:48:04,VALID,1000.6,VALID,0,VALID,94.2182,VALID,0,VALID,22.7842,VALID,1,VALID,0.53125,
2010-05-27, 01:49:04,VALID,1000.61,VALID,0,VALID,94.2411,VALID,0,VALID,22.8037,VALID,45,VALID,0.717969,
2010-05-27, 01:50:04,VALID,1000.58,VALID,0,VALID,94.2334,VALID,0,VALID,22.7842,VALID,50,VALID,0.683203,
2010-05-27, 01:51:04,VALID,1000.59,VALID,0,VALID,94.2334,VALID,0,VALID,22.8037,VALID,50,VALID,0.505078,
2010-05-27, 01:52:04,VALID,1000.56,VALID,0,VALID,94.2563,VALID,0,VALID,22.8232,VALID,50,VALID,0.402344,
2010-05-27, 01:53:04,VALID,1000.59,VALID,0,VALID,94.2487,VALID,0,VALID,22.8037,VALID,50,VALID,0.155078,
2010-05-27, 01:54:04,VALID,1000.58,VALID,0,VALID,94.2411,VALID,0,VALID,22.8037,VALID,50,VALID,0.239844,
2010-05-27, 01:55:04,VALID,1000.59,VALID,0,VALID,94.264,VALID,0,VALID,22.8037,VALID,50,VALID,0.229297,
2010-05-27, 01:56:04,VALID,1000.58,VALID,0,VALID,94.2487,VALID,0,VALID,22.7647,VALID,50,VALID,0.158203,
2010-05-27, 01:57:04,VALID,1000.6,VALID,0,VALID,94.264,VALID,0,VALID,22.7435,VALID,50,VALID,0.223438,
2010-05-27, 01:58:04,VALID,1000.55,VALID,0,VALID,94.2411,VALID,0,VALID,22.7257,VALID,50,VALID,0.224609,
2010-05-27, 01:59:04,VALID,1000.56,VALID,0,VALID,94.2411,VALID,0,VALID,22.7257,VALID,50,VALID,0.0277344,
2010-05-27, 02:00:04,VALID,1000.57,VALID,0,VALID,94.2487,VALID,0,VALID,22.7062,VALID,50,VALID,0,
2010-05-27, 02:01:04,VALID,1000.58,VALID,0,VALID,94.264,VALID,0,VALID,22.7257,VALID,50,VALID,0.00273437,
2010-05-27, 02:02:04,VALID,1000.6,VALID,0,VALID,94.3021,VALID,0,VALID,22.7452,VALID,50,VALID,0.427734,
2010-05-27, 02:03:04,VALID,1000.59,VALID,0,VALID,94.3021,VALID,0,VALID,22.8037,VALID,50,VALID,0.434766,
2010-05-27, 02:04:04,VALID,1000.59,VALID,0,VALID,94.2792,VALID,0,VALID,22.8427,VALID,50,VALID,0.4875,
2010-05-27, 02:05:04,VALID,1000.61,VALID,0,VALID,94.2868,VALID,0,VALID,22.8445,VALID,50,VALID,0.445313,
2010-05-27, 02:06:04,VALID,1000.6,VALID,0,VALID,94.2868,VALID,0,VALID,22.8232,VALID,50,VALID,0.457422,
2010-05-27, 02:07:04,VALID,1000.61,VALID,0,VALID,94.325,VALID,0,VALID,22.864,VALID,52,VALID,0.636328,
2010-05-27, 02:08:04,VALID,1000.6,VALID,0,VALID,94.3021,VALID,0,VALID,22.8818,VALID,53,VALID,0.439453,
2010-05-27, 02:09:04,VALID,1000.61,VALID,0,VALID,94.2868,VALID,0,VALID,22.8818,VALID,53,VALID,0.210938,
2010-05-27, 02:10:04,VALID,1000.62,VALID,0,VALID,94.2868,VALID,0,VALID,22.8427,VALID,53,VALID,0,
2010-05-27, 02:11:04,VALID,1000.63,VALID,0,VALID,94.3021,VALID,0,VALID,22.8037,VALID,53,VALID,0.359375,
2010-05-27, 02:12:04,VALID,1000.64,VALID,0,VALID,94.3403,VALID,0,VALID,22.8232,VALID,53,VALID,0.577344,
2010-05-27, 02:13:04,VALID,1000.66,VALID,0,VALID,94.3174,VALID,0,VALID,22.8623,VALID,53,VALID,0.387109,
2010-05-27, 02:14:04,VALID,1000.68,VALID,0,VALID,94.3174,VALID,0,VALID,22.9013,VALID,53,VALID,0.415625,
2010-05-27, 02:15:04,VALID,1000.71,VALID,0,VALID,94.325,VALID,0,VALID,22.8995,VALID,61,VALID,0.946484,
2010-05-27, 02:16:04,VALID,1000.7,VALID,0,VALID,94.3174,VALID,0,VALID,22.9385,VALID,90,VALID,1.06914,
2010-05-27, 02:17:04,VALID,1000.69,VALID,0,VALID,94.3174,VALID,0,VALID,22.9403,VALID,95,VALID,0.533984,
2010-05-27, 02:18:04,VALID,1000.72,VALID,0,VALID,94.325,VALID,0,VALID,22.9208,VALID,95,VALID,0.237891,
2010-05-27, 02:19:04,VALID,1000.7,VALID,0,VALID,94.3021,VALID,0,VALID,22.8818,VALID,95,VALID,0.432422,
2010-05-27, 02:20:04,VALID,1000.7,VALID,0,VALID,94.3097,VALID,0,VALID,22.8818,VALID,95,VALID,0.962109,
2010-05-27, 02:21:04,VALID,1000.69,VALID,0,VALID,94.3174,VALID,0,VALID,22.9403,VALID,95,VALID,0.969531,
2010-05-27, 02:22:04,VALID,1000.66,VALID,0,VALID,94.3097,VALID,0,VALID,22.9208,VALID,95,VALID,0.773438,
2010-05-27, 02:23:04,VALID,1000.66,VALID,0,VALID,94.3326,VALID,0,VALID,22.9208,VALID,95,VALID,0.945703,
2010-05-27, 02:24:04,VALID,1000.66,VALID,0,VALID,94.2945,VALID,0,VALID,22.9598,VALID,95,VALID,1.11133,
2010-05-27, 02:25:04,VALID,1000.64,VALID,0,VALID,94.325,VALID,0,VALID,22.9403,VALID,95,VALID,0.977734,
2010-05-27, 02:26:04,VALID,1000.62,VALID,0,VALID,94.3097,VALID,0,VALID,22.9013,VALID,95,VALID,0.76875,
2010-05-27, 02:27:04,VALID,1000.59,VALID,0,VALID,94.3021,VALID,0,VALID,22.8818,VALID,95,VALID,0.454688,
2010-05-27, 02:28:04,VALID,1000.62,VALID,0,VALID,94.2945,VALID,0,VALID,22.8623,VALID,95,VALID,0.407031,
2010-05-27, 02:29:04,VALID,1000.63,VALID,0,VALID,94.3021,VALID,0,VALID,22.8427,VALID,95,VALID,0.560156,
2010-05-27, 02:30:04,VALID,1000.63,VALID,0,VALID,94.3403,VALID,0,VALID,22.8605,VALID,95,VALID,0.670703,
2010-05-27, 02:31:04,VALID,1000.61,VALID,0,VALID,94.325,VALID,0,VALID,22.9208,VALID,95,VALID,0.460156,
2010-05-27, 02:32:04,VALID,1000.6,VALID,0,VALID,94.3174,VALID,0,VALID,22.9208,VALID,95,VALID,0.409766,
2010-05-27, 02:33:04,VALID,1000.58,VALID,0,VALID,94.3021,VALID,0,VALID,22.8623,VALID,95,VALID,0.498828,
2010-05-27, 02:34:04,VALID,1000.6,VALID,0,VALID,94.3174,VALID,0,VALID,22.8232,VALID,95,VALID,0.464844,
2010-05-27, 02:35:04,VALID,1000.57,VALID,0,VALID,94.3021,VALID,0,VALID,22.841,VALID,95,VALID,0.351953,
2010-05-27, 02:36:04,VALID,1000.54,VALID,0,VALID,94.3097,VALID,0,VALID,22.8427,VALID,95,VALID,0.346875,
2010-05-27, 02:37:04,VALID,1000.5,VALID,0,VALID,94.3021,VALID,0,VALID,22.8037,VALID,95,VALID,0.45625,
2010-05-27, 02:38:04,VALID,1000.51,VALID,0,VALID,94.3021,VALID,0,VALID,22.7825,VALID,95,VALID,0.463281,
2010-05-27, 02:39:04,VALID,1000.47,VALID,0,VALID,94.3021,VALID,0,VALID,22.8037,VALID,95,VALID,0.476953,
2010-05-27, 02:40:04,VALID,1000.46,VALID,0,VALID,94.325,VALID,0,VALID,22.8037,VALID,95,VALID,0.291406,
2010-05-27, 02:41:04,VALID,1000.45,VALID,0,VALID,94.3174,VALID,0,VALID,22.7825,VALID,95,VALID,0.181641,
2010-05-27, 02:42:04,VALID,1000.48,VALID,0,VALID,94.2945,VALID,0,VALID,22.763,VALID,95,VALID,0,
2010-05-27, 02:43:04,VALID,1000.49,VALID,0,VALID,94.3097,VALID,0,VALID,22.7257,VALID,95,VALID,0.324609,
2010-05-27, 02:44:04,VALID,1000.48,VALID,0,VALID,94.3097,VALID,0,VALID,22.7062,VALID,28,VALID,0.580859,
2010-05-27, 02:45:04,VALID,1000.48,VALID,0,VALID,94.3174,VALID,0,VALID,22.7257,VALID,28,VALID,0.732422,
2010-05-27, 02:46:04,VALID,1000.47,VALID,0,VALID,94.3174,VALID,0,VALID,22.7647,VALID,28,VALID,0.746094,
2010-05-27, 02:47:04,VALID,1000.46,VALID,0,VALID,94.3097,VALID,0,VALID,22.7647,VALID,28,VALID,0.790625,
2010-05-27, 02:48:04,VALID,1000.47,VALID,0,VALID,94.325,VALID,0,VALID,22.8037,VALID,25,VALID,0.689062,
2010-05-27, 02:49:04,VALID,1000.49,VALID,0,VALID,94.3326,VALID,0,VALID,22.763,VALID,25,VALID,0.492188,
2010-05-27, 02:50:04,VALID,1000.44,VALID,0,VALID,94.3097,VALID,0,VALID,22.7257,VALID,25,VALID,0.398438,
2010-05-27, 02:51:04,VALID,1000.44,VALID,0,VALID,94.325,VALID,0,VALID,22.7257,VALID,25,VALID,0.486328,
2010-05-27, 02:52:04,VALID,1000.46,VALID,0,VALID,94.3021,VALID,0,VALID,22.7062,VALID,25,VALID,0.748828,
2010-05-27, 02:53:04,VALID,1000.45,VALID,0,VALID,94.3097,VALID,0,VALID,22.6069,VALID,26,VALID,0.992188,
2010-05-27, 02:54:04,VALID,1000.44,VALID,0,VALID,94.2945,VALID,0,VALID,22.5289,VALID,26,VALID,0.94375,
2010-05-27, 02:55:04,VALID,1000.45,VALID,0,VALID,94.3021,VALID,0,VALID,22.5111,VALID,26,VALID,1.03164,
2010-05-27, 02:56:04,VALID,1000.44,VALID,0,VALID,94.3021,VALID,0,VALID,22.4899,VALID,26,VALID,0.855859,
2010-05-27, 02:57:04,VALID,1000.43,VALID,0,VALID,94.325,VALID,0,VALID,22.5094,VALID,26,VALID,0.647656,
2010-05-27, 02:58:04,VALID,1000.45,VALID,0,VALID,94.325,VALID,0,VALID,22.5306,VALID,26,VALID,0.491406,
2010-05-27, 02:59:04,VALID,1000.43,VALID,0,VALID,94.3097,VALID,0,VALID,22.4916,VALID,26,VALID,0.214453,
2010-05-27, 03:00:04,VALID,1000.42,VALID,0,VALID,94.3326,VALID,0,VALID,22.4704,VALID,26,VALID,0.294531,
2010-05-27, 03:01:04,VALID,1000.43,VALID,0,VALID,94.325,VALID,0,VALID,22.4916,VALID,26,VALID,0.438672,
2010-05-27, 03:02:04,VALID,1000.41,VALID,0,VALID,94.3555,VALID,0,VALID,22.5111,VALID,26,VALID,0.158984,
2010-05-27, 03:03:04,VALID,1000.38,VALID,0,VALID,94.3326,VALID,0,VALID,22.5094,VALID,26,VALID,0,
2010-05-27, 03:04:04,VALID,1000.37,VALID,0,VALID,94.3326,VALID,0,VALID,22.5306,VALID,26,VALID,0,
2010-05-27, 03:05:04,VALID,1000.37,VALID,0,VALID,94.3555,VALID,0,VALID,22.5306,VALID,26,VALID,0,
2010-05-27, 03:06:04,VALID,1000.34,VALID,0,VALID,94.3555,VALID,0,VALID,22.5094,VALID,26,VALID,0.5,
2010-05-27, 03:07:04,VALID,1000.32,VALID,0,VALID,94.3479,VALID,0,VALID,22.5484,VALID,26,VALID,0.490625,
2010-05-27, 03:08:04,VALID,1000.28,VALID,0,VALID,94.3326,VALID,0,VALID,22.5892,VALID,26,VALID,0.424219,
2010-05-27, 03:09:04,VALID,1000.26,VALID,0,VALID,94.3403,VALID,0,VALID,22.6087,VALID,26,VALID,0.324219,
2010-05-27, 03:10:04,VALID,1000.25,VALID,0,VALID,94.3479,VALID,0,VALID,22.5696,VALID,26,VALID,0.398438,
2010-05-27, 03:11:04,VALID,1000.21,VALID,0,VALID,94.3631,VALID,0,VALID,22.5696,VALID,26,VALID,0.290234,
2010-05-27, 03:12:04,VALID,1000.2,VALID,0,VALID,94.3326,VALID,0,VALID,22.5306,VALID,26,VALID,0,
2010-05-27, 03:13:04,VALID,1000.17,VALID,0,VALID,94.3326,VALID,0,VALID,22.5111,VALID,26,VALID,0,
2010-05-27, 03:14:04,VALID,1000.16,VALID,0,VALID,94.3403,VALID,0,VALID,22.4916,VALID,26,VALID,0,
2010-05-27, 03:15:04,VALID,1000.15,VALID,0,VALID,94.325,VALID,0,VALID,22.4721,VALID,26,VALID,0,
2010-05-27, 03:16:04,VALID,1000.11,VALID,0,VALID,94.3479,VALID,0,VALID,22.4916,VALID,26,VALID,0,
2010-05-27, 03:17:04,VALID,1000.1,VALID,0,VALID,94.325,VALID,0,VALID,22.4916,VALID,26,VALID,0,
2010-05-27, 03:18:04,VALID,1000.11,VALID,0,VALID,94.3479,VALID,0,VALID,22.5306,VALID,26,VALID,0,
2010-05-27, 03:19:04,VALID,1000.11,VALID,0,VALID,94.3403,VALID,0,VALID,22.5484,VALID,26,VALID,0,
2010-05-27, 03:20:04,VALID,1000.14,VALID,0,VALID,94.3403,VALID,0,VALID,22.5892,VALID,26,VALID,0,
2010-05-27, 03:21:04,VALID,1000.14,VALID,0,VALID,94.3326,VALID,0,VALID,22.5484,VALID,5,VALID,0.614453,
2010-05-27, 03:22:04,VALID,1000.12,VALID,0,VALID,94.3326,VALID,0,VALID,22.4916,VALID,5,VALID,0.620703,
2010-05-27, 03:23:04,VALID,1000.14,VALID,0,VALID,94.3326,VALID,0,VALID,22.4331,VALID,5,VALID,0.238672,
2010-05-27, 03:24:04,VALID,1000.13,VALID,0,VALID,94.3174,VALID,0,VALID,22.4331,VALID,5,VALID,0,
2010-05-27, 03:25:04,VALID,1000.13,VALID,0,VALID,94.3479,VALID,0,VALID,22.3924,VALID,5,VALID,0,
2010-05-27, 03:26:04,VALID,1000.08,VALID,0,VALID,94.3555,VALID,0,VALID,22.3534,VALID,5,VALID,0,
2010-05-27, 03:27:04,VALID,1000.11,VALID,0,VALID,94.3403,VALID,0,VALID,22.3763,VALID,5,VALID,0,
2010-05-27, 03:28:04,VALID,1000.09,VALID,0,VALID,94.3403,VALID,0,VALID,22.3941,VALID,5,VALID,0,
2010-05-27, 03:29:04,VALID,1000.09,VALID,0,VALID,94.3479,VALID,0,VALID,22.4314,VALID,5,VALID,0.276172,
2010-05-27, 03:30:04,VALID,1000.1,VALID,0,VALID,94.3555,VALID,0,VALID,22.4704,VALID,5,VALID,0.499609,
2010-05-27, 03:31:04,VALID,1000.11,VALID,0,VALID,94.3479,VALID,0,VALID,22.4916,VALID,5,VALID,0.743359,
2010-05-27, 03:32:04,VALID,1000.1,VALID,0,VALID,94.3631,VALID,0,VALID,22.5111,VALID,5,VALID,0.801953,
2010-05-27, 03:33:04,VALID,1000.12,VALID,0,VALID,94.3708,VALID,0,VALID,22.4704,VALID,22,VALID,0.783594,
2010-05-27, 03:34:04,VALID,1000.12,VALID,0,VALID,94.325,VALID,0,VALID,22.4331,VALID,48,VALID,0.608984,
2010-05-27, 03:35:04,VALID,1000.12,VALID,0,VALID,94.3631,VALID,0,VALID,22.3534,VALID,51,VALID,0.596094,
2010-05-27, 03:36:04,VALID,1000.11,VALID,0,VALID,94.3555,VALID,0,VALID,22.3356,VALID,73,VALID,0.547266,
2010-05-27, 03:37:04,VALID,1000.07,VALID,0,VALID,94.3784,VALID,0,VALID,22.3356,VALID,88,VALID,0.778906,
2010-05-27, 03:38:04,VALID,1000.11,VALID,0,VALID,94.3708,VALID,0,VALID,22.3144,VALID,88,VALID,0.544922,
2010-05-27, 03:39:04,VALID,1000.12,VALID,0,VALID,94.386,VALID,0,VALID,22.3746,VALID,88,VALID,0.342969,
2010-05-27, 03:40:04,VALID,1000.14,VALID,0,VALID,94.3784,VALID,0,VALID,22.4136,VALID,81,VALID,0.774219,
2010-05-27, 03:41:04,VALID,1000.14,VALID,0,VALID,94.386,VALID,0,VALID,22.4136,VALID,60,VALID,0.734375,
2010-05-27, 03:42:04,VALID,1000.15,VALID,0,VALID,94.386,VALID,0,VALID,22.4136,VALID,51,VALID,0.834375,
2010-05-27, 03:43:04,VALID,1000.17,VALID,0,VALID,94.3631,VALID,0,VALID,22.3551,VALID,50,VALID,0.985156,
2010-05-27, 03:44:04,VALID,1000.16,VALID,0,VALID,94.386,VALID,0,VALID,22.3356,VALID,50,VALID,0.828125,
2010-05-27, 03:45:04,VALID,1000.17,VALID,0,VALID,94.4013,VALID,0,VALID,22.3356,VALID,50,VALID,0.596484,
2010-05-27, 03:46:04,VALID,1000.17,VALID,0,VALID,94.386,VALID,0,VALID,22.3356,VALID,50,VALID,0.406641,
2010-05-27, 03:47:04,VALID,1000.16,VALID,0,VALID,94.4013,VALID,0,VALID,22.3161,VALID,50,VALID,0.117969,
2010-05-27, 03:48:04,VALID,1000.17,VALID,0,VALID,94.4013,VALID,0,VALID,22.2771,VALID,50,VALID,0,
2010-05-27, 03:49:04,VALID,1000.22,VALID,0,VALID,94.3708,VALID,0,VALID,22.2576,VALID,50,VALID,0,
2010-05-27, 03:50:04,VALID,1000.21,VALID,0,VALID,94.3937,VALID,0,VALID,22.2381,VALID,50,VALID,0.0550781,
2010-05-27, 03:51:04,VALID,1000.19,VALID,0,VALID,94.386,VALID,0,VALID,22.2186,VALID,50,VALID,0.297266,